Location: Ottawa (KS)
(38.6160°N, 95.2680°W)
Time: 12:55:38
(UTC-05:00)

Tiangong 2 - Visible Passes

Search period start: 19 June 2018 00:00
Search period end: 29 June 2018 00:00
Orbit: 292 x 297 km, 42.8° (Epoch: 19 June)

Date Brightness Start Highest point End Pass type
(mag) Time Alt. Az. Time Alt. Az. Time Alt. Az.
25 Jun 2.5 05:10:38 10° SSW 05:12:37 20° SSE 05:14:35 10° E visible
26 Jun 1.3 05:15:58 11° SW 05:18:16 41° SSE 05:20:42 10° E visible
27 Jun 0.5 05:21:22 10° WSW 05:23:55 86° SSE 05:26:28 10° ENE visible
28 Jun 2.9 03:56:03 18° ESE 03:56:03 18° ESE 03:57:06 10° E visible
